Weather in Salt Lake City

United States     40°46′35″N   111°56′56″W
temp.,
°C
wind,
m/s
gust,
m/s
humid.,
%
clouds,
%
prec.,
mm/h
press.,
hPa
HPBL,
m
7 may, fri
fri700:00+18sse46234 0.0 100966
03:00+16sse592675 0.0 1009147
06:00+15sse593172 0.0 1009132
09:00+20sse611305 0.0 1008504
12:00+24sw5102011 0.0 10053223
15:00+25w492176 0.0 10032559
18:00+15nnw6961100 0.0 1006798
21:00+10n5790100 2.6 1012568
8 may, sat
sat800:00+10nw118154 3.1 1012214
03:00+9nnw6972100 2.1 1013957
06:00+6nw586412 2.3 1017471
09:00+7nw68434 0.0 10191634
12:00+9nw79364 0.0 10191867
15:00+10nnw59271 0.0 10172282
18:00+11nw28234 0.0 10152218
21:00+8ssw123081 0.0 1015403
9 may, sun
sun900:00+6nnw22394 0.0 101666
03:00+5ssw11425 0.0 101728
06:00+4sse224058 0.0 101629
09:00+9w223346 0.0 1016789
12:00+12nw442797 0.0 10151927
15:00+12nw5428100 0.0 10131823
18:00+12nnw3329100 0.0 10121082
21:00+8nw223647 0.0 101297
10 may, mon
mon1000:00+6w114378 0.0 101326
03:00+5s114467 0.0 101218
06:00+5se014586 0.0 101217
09:00+9wnw124099 0.0 1012429
12:00+13wnw433650 0.0 10111399
15:00+14nw543438 0.0 10101704
18:00+13nnw5541100 0.1 10101680
21:00+8nnw2368100 0.2 1012176
11 may, tue
tue1100:00+7nnw1270100 0.2 1015133
03:00+7w1171100 0.0 1015110
06:00+6se01759 0.0 101762
09:00+10nw11555 0.1 1018677
12:00+13nw44466 0.2 10171554
15:00+15nw55381 0.0 10171594
18:00+15nnw45341 0.0 10171492
21:00+11ne11495 0.0 101819